Regional Weather Roundup
Issued by NWS Newport/Morehead, NC

Current Version | Previous Version | Graphics & Text | Print | Product List | Glossary Off
Versions: 1 2 3 4 5 6 7 8 9 10 11 12 13 14 15 16 17 18 19 20 21 22 23 24 25 26 27 28 29 30 31 32 33 34 35 36 37 38 39 40 41 42 43 44 45 46 47 48 49 50

000
ASUS42 KMHX 211725
RWRMHX
WEATHER ROUNDUP FOR EASTERN NORTH CAROLINA
NATIONAL WEATHER SERVICE NEWPORT/MOREHEAD CITY NC
100 PM EDT THU SEP 21 2017

NOTE: "FAIR" INDICATES FEW OR NO CLOUDS BELOW 12,000 FEET
WITH NO SIGNIFICANT WEATHER AND/OR OBSTRUCTIONS TO VISIBILITY

NCZ015>017-031-032-045>047-102-103-211800-
NORTH COAST

CITY           SKY/WX    TMP DP  RH WIND       PRES   REMARKS
EDENTON        MOSUNNY   87  65  48 CALM      30.03F
ELIZABETH CITY SUNNY     86  66  51 N6        30.01F
KITTY HAWK     SUNNY     78  67  67 CALM      30.01S
MANTEO         SUNNY     81  69  65 NE8       30.03S

$$

NCZ045>047-081-094-103-104-211800-
CENTRAL COAST

CITY           SKY/WX    TMP DP  RH WIND       PRES   REMARKS
FRISCO         SUNNY     85  70  60 VRB5      30.02F

$$

NCZ095-097-098-100-101-211800-
SOUTHERN COAST

CITY           SKY/WX    TMP DP  RH WIND       PRES   REMARKS
BEAUFORT       PTSUNNY   83  73  72 S8        30.02F
CEDAR ISLAND   NOT AVBL
JACKSONVILLE   SUNNY     87  70  56 CALM      30.01F
PINEY ISLAND     N/A    N/A N/A N/A NE7       30.02F
WILMINGTON     SUNNY     89  69  51 VRB3      30.02F


$$

NCZ011>013-027>030-043-044-078>080-089-090>093-098-211800-
COASTAL PLAIN

CITY           SKY/WX    TMP DP  RH WIND       PRES   REMARKS
AHOSKIE          N/A     82  62  50 N6        30.04S
CLINTON        SUNNY     89  70  53 NE3       30.03F
ELIZABETHTOWN  NOT AVBL
GOLDSBORO      SUNNY     87  71  59 NE8       30.01F
GREENVILLE     SUNNY     86  72  62 N5        30.04F
HAVELOCK       PTSUNNY   87  71  58 NE16G24   30.02F
KENANSVILLE    SUNNY     86  70  58 N3        30.03F
KINSTON        MOSUNNY   88  68  51 E3        30.03F
NEW BERN       SUNNY     87  69  54 NE5       30.03F
RICHLANDS      SUNNY     88  71  57 NE3       30.02F
ROCKY MOUNT    MOSUNNY   86  71  60 NE8       30.04F
WASHINGTON     MOSUNNY   86  71  61 NE3       30.02F
WHITEVILLE     SUNNY     88  70  54 NE6       30.02F

$$

AMZ130-135-150-152-154-156-158-170-250-252-270-ANZ085-086-088-633-658-670-211800-
MARINE OBSERVATIONS

STATION/POSITION TIME  TEMP    WIND        PRES    WAVE   SWELL
                       AIR SEA DIR/SP/G            HT/PER HT/PER
                 (UTC) (F)     (DEG/KT/KT) (MB)    (FT/S) (FT/S)
CHESAPEAKE LIGHT NOT AVBL
64 E VA BEACH    1650   72 71  320/  6/  6 1016.7    8/11   8/11
DUCK             1642   75 75  360/  6/  9 1016.3
2 E DUCK         1630      76                N/A     4/12   3/12
OREGON INLET     1700   76 77   20/  9/ 12 1016.4
13E OREGON INLT  1648      75                N/A     5/11   5/11
HATTERAS CG      1700   79 77   10/  5/  6 1016.6
DIAMOND BUOY     1650   77 77  360/  4/  6 1016.4    4/11   5/11
CAPE LOOKOUT     1700   81     120/  3/  4 1016.3
BEAUFORT LAB     1700   80 75  180/  8/  9 1016.0
30 SE NEW RVR IN 1708   80     330/  4/  6 1016.7
30 SE NEW RVR IN NOT AVBL
27 SE WRIGHTSVLE 1708   79 80   30/  4/  6 1016.9
5 SE WRIGHTSVLE  1708   80 79   90/  6/ 10 1016.6
225 S CAPE HAT   1650   79 81   50/  2/  4 1017.5    5/11   5/11
41 SE CHARLESTON 1710   80 81   CALM  /  2 1016.8

$$




USA.gov is the U.S. government's official web portal to all federal, state and local government web resources and services.